Preview of NWS' New Version of Forecast
This preview is not operational and should not be used for support decisions.

Regional Weather Roundup (RWR)

Issued by National Weather Service (NWS)

                            
000
ASUS43 KLSX 221607
RWRMO 

WEATHER SUMMARY FOR MISSOURI
NATIONAL WEATHER SERVICE SPRINGFIELD MO
1100 AM CDT MON JUL 22 2019

NOTE: "FAIR" INDICATES FEW OR NO CLOUDS BELOW 12,000 FEET WITH NO
       SIGNIFICANT WEATHER AND/OR OBSTRUCTIONS TO VISIBILITY.
       CURRENT SKY AND/OR WEATHER CONDITIONS ARE NOT AVAILABLE FOR
       CHILLICOTHE AND FARMINGTON.

MOZ001>031-035>038-043-044-053-054-221700-
...NORTHERN AND WESTERN MISSOURI...
  
CITY           SKY/WX    TMP DP  RH WIND       PRES   REMARKS
KANSAS CTY INT MOSUNNY   77  65  66 N14       30.17R                  
KANSAS C DTWN  SUNNY     80  60  50 N14       30.14S                  
LEE'S SUMMIT   SUNNY     77  61  57 N15G25    30.15S                  
ST JOSEPH      SUNNY     77  62  59 N15       30.18R                  
CHILLICOTHE      N/A     80  64  58 N8        30.15R                  
KIRKSVILLE     SUNNY     79  62  56 N17G25    30.12S                  
     
$$
MOZ066>068-077>081-088>096-101>105-221700-
...SOUTHWEST MISSOURI...
  
CITY           SKY/WX    TMP DP  RH WIND       PRES   REMARKS
SPRINGFIELD    MOSUNNY   75  65  70 N20G28    30.07R                  
JOPLIN         PTSUNNY   75  69  81 N14G22    30.09R                  
BRANSON        LGT RAIN  72  72 100 NW7       30.05R                  
               
$$
MOZ032>034-039>042-045>050-055>058-069>072-221700-
...CENTRAL MISSOURI...  
  
CITY           SKY/WX    TMP DP  RH WIND       PRES   REMARKS
COLUMBIA       SUNNY     79  62  56 N13       30.08R                  
ROLLA          PTSUNNY   71  65  81 N15G21    30.08R                  
SEDALIA        SUNNY     74  62  66 NE16G25   30.12R                  
WHITEMAN AFB   MOSUNNY   77  64  63 N16       30.08R                  
WARRENSBURG    SUNNY     77  61  57 N14G20    30.12S                  
OSAGE BEACH    MOSUNNY   76  65  68 N8        30.09R                  
               
$$
MOZ051-052-059>065-221700-
...EAST CENTRAL MISSOURI...
  
CITY           SKY/WX    TMP DP  RH WIND       PRES   REMARKS
ST LOUIS INTL  PTSUNNY   67  62  84 NE8       30.04R                  
SPIRIT OF STL  MOSUNNY   70  63  78 N6        30.04R                  
ST CHARLES       N/A    N/A N/A N/A MISG      30.03S                  
                   
$$
MOZ072>076-082>087-097>100-106>115-221700-
...SOUTH CENTRAL AND SOUTHEAST MISSOURI...
  
CITY           SKY/WX    TMP DP  RH WIND       PRES   REMARKS
CAPE GIRARDEAU HVY RAIN  75  72  90 N10G22    29.94R FOG              
FARMINGTON     LGT RAIN  68  67  96 N10       30.02R                  
POPLAR BLUFF   PTSUNNY   77  76  96 N7        29.93S                  
WEST PLAINS    CLOUDY    75  70  84 N6        30.03R                  
                                       
$$